User: anonymous   Login
Location: Unspecified
(0.0000°N, 0.0000°E)
Time: 22:20:52
(UTC+00:00)
Language:

STSS DEMO 1 (USA 208) - Orbit

View from above orbital plane
View from above orbital plane
View from above satellite
View from above satellite

Ground track
Ground track

The orbit data is extracted from the following two-line orbital elements,

1 35937U 09052A   17324.06030722 0.00000000  00000-0  00000-0 0    03
2 35937  57.9869 322.2446 0019503 108.6326 251.3674 12.79325892    06
Epoch (UTC): 20 November 2017 01:26:50
Eccentricity: 0.0019503
inclination: 57.9869°
perigee height: 1329 km
apogee height: 1359 km
right ascension of ascending node: 322.2446°
argument of perigee: 108.6326°
revolutions per day: 12.79325892
mean anomaly at epoch: 251.3674°
orbit number at epoch: 0

The dashed part of the orbit path shows where the satellite is in the earth's shadow,  

DLR